ONEWEB-0066, 45424

Orbit data source: Space-Track

ONEWEB-0066, 45424 is a payload satellite owned by One Web (UK) in LEO that was launched on Sat, 21 Mar 2020 UTC via a SOYUZ-2-1B launch vehicle from the Tyuratam Missile And Space Complex (TTMTR). Payload-class satellites include a variety of spacecraft equipped with specific instruments for various scientific and technological missions. These include communications satellites like Starlink; space stations such as the ISS; scientific satellites like the Hubble; Earth observation satellites from companies like Planet Labs, Umbra, and HawkEye 360; GPS; miniature CubeSats for education and research; and military/defense satellites.

Loading next visibility...
Identifier
45424, 2020-020A
Orbit
LEO
Country
Flag of UKUK
Related business
Manufacturer
One Web
Mission
Operational Commercial Communications
Bus & Motor
ARROW, Unknown motor
Mass
148 kg wet, ~140 kg dry
Launch date (UTC)
2020-03-21 (5 years ago)
Launch vehicle
SOYUZ-2-1B
Launch site
Tyuratam Missile And Space Complex (TTMTR)
Object type
Payload
Rocket body
Debris
Shape & HBR
Trap Box + 2 Pan, 2.5 m
Radar Cross Section
2.957 m², Large (>1 m²)

Expand to show TLE details & history
Last TLE update: 13 hours ago

TLE from 13 hours ago
0 ONEWEB-0066
1 45424U 20020A   25243.06637602  .00000428  00000-0  11705-2 0  9999
2 45424  87.8782  78.8685 0001855  79.1359 280.9977 13.11416933264653
Epoch: 2025-08-31T01:35Z
TLE epoch observation values (Epoch: 2025-08-31T01:35:34.888Z)
Latitude
-0.00007°
Longitude
75.48148°
Altitude
1,220.303 km
Speed
7.244 km/s
True Right ascension
05h 15m 28s
True Declination
0° 00' 00"
Sunlit
Object was in daylight at epoch
Visualization orbit readout
Latitude
Unknown
Longitude
Unknown
Altitude
Unknown
Speed
Unknown
Apparent Right ascension
Unknown
Apparent Declination
Unknown
Sunlit
N/A
Visualization observer readout
Local Sidereal Time
06:44:13
Azimuth
Unknown
Elevation
Unknown
Doppler factor
Unknown
Orbital elements
Apogee altitude
1,216.21 km
Perigee altitude
1,213.393 km
Semi-major axis
7,592.938 km
Eccentricity
0.00019
Inclination
87.8782°
RAAN
78.8685°
Arg. of periapsis
79.1359°
True anomaly
280.97683°
Mean anomaly
280.9977°
Eccentric anomaly
280.98727°
Mean motion
3.28041 °/min
Orbital period
109.74 mins
BSTAR
0.0011705
Loading maneuver chart data...
Computing Atmospheric mass density...
Loading historical data...
Loading historical data...
Loading historical data...
Loading historical data...
Loading historical data...
Loading historical data...
Loading historical data...

Documentation

Showing up to 5 results
|